FW9243 Weather Reports


time (UTC)temp
F
wind
direction
speed
knots
gust
knots
rain 1hr
in
rain 24hr
in
rain mn
in
humidity
%
barometer
mb
20240418165027 65 46 4.3 8.7 0.00 0.00 0.00 71 1017.8
20240418164802 66 351 5.2 8.7 0.00 0.00 0.00 50 1017.8
20240418164529 66 53 3.5 9.6 0.00 0.00 0.00 69 1017.8
20240418164302 66 28 5.2 7.8 0.00 0.00 0.00 50 1017.8
20240418164023 66 31 3.5 9.6 0.00 0.00 0.00 70 1017.8
20240418163802 67 41 3.5 7.8 0.00 0.00 0.00 48 1017.8
20240418163524 66 50 4.3 9.6 0.00 0.00 0.00 68 1017.8
20240418163303 67 47 3.5 7.8 0.00 0.00 0.00 49 1017.8
20240418163028 67 43 2.6 7.8 0.00 0.00 0.00 69 1017.8
20240418162803 67 20 3.5 7.8 0.00 0.00 0.00 50 1017.8
20240418162527 67 44 3.5 7.8 0.00 0.00 0.00 69 1017.9
20240418162524 67 30 3.5 7.8 0.00 0.00 0.00 50 1017.9
20240418162023 67 50 3.5 8.7 0.00 0.00 0.00 69 1017.9
20240418161802 67 27 5.2 8.7 0.00 0.00 0.00 49 1017.9
20240418161527 67 47 3.5 8.7 0.00 0.00 0.00 69 1017.9
20240418161301 68 54 4.3 8.7 0.00 0.00 0.00 49 1017.9
20240418161023 67 13 3.5 8.7 0.00 0.00 0.00 69 1017.9
20240418160802 68 44 3.5 8.7 0.00 0.00 0.00 49 1017.9
20240418160525 67 51 3.5 8.7 0.00 0.00 0.00 69 1017.9
20240418160302 68 30 5.2 8.7 0.00 0.00 0.00 49 1017.9
20240418160033 67 31 3.5 8.7 0.00 0.00 0.00 69 1017.8
20240418155803 68 14 3.5 8.7 0.00 0.00 0.00 49 1017.8
20240418155746 68 17 3.5 7.8 0.00 0.00 0.00 49 1017.8
20240418155523 67 46 4.3 8.7 0.00 0.00 0.00 68 1017.8
20240418155027 67 65 3.5 8.7 0.00 0.00 0.00 69 1017.8
20240418154803 68 31 4.3 7.8 0.00 0.00 0.00 49 1017.9
20240418154531 68 56 4.3 8.7 0.00 0.00 0.00 49 1017.8
20240418154301 68 31 4.3 7.8 0.00 0.00 0.00 49 1017.8
20240418154023 68 21 2.6 8.7 0.00 0.00 0.00 69 1017.9
20240418154019 68 37 3.5 7.8 0.00 0.00 0.00 48 1017.9
20240418153524 68 19 2.6 8.7 0.00 0.00 0.00 69 1017.9
20240418153302 68 44 3.5 7.8 0.00 0.00 0.00 50 1018.0
20240418153033 67 38 4.3 8.7 0.00 0.00 0.00 70 1018.0
20240418152802 67 41 5.2 7.8 0.00 0.00 0.00 47 1018.0
20240418152523 67 32 4.3 8.7 0.00 0.00 0.00 67 1018.0
20240418152303 68 8 5.2 7.8 0.00 0.00 0.00 48 1018.0
20240418152028 67 33 3.5 9.6 0.00 0.00 0.00 67 1018.1
20240418151803 68 34 3.5 8.7 0.00 0.00 0.00 48 1018.0
20240418151529 67 48 3.5 9.6 0.00 0.00 0.00 70 1018.2
20240418151521 68 28 5.2 8.7 0.00 0.00 0.00 47 1018.1
20240418151024 67 19 4.3 9.6 0.00 0.00 0.00 47 1018.2
20240418150802 68 24 3.5 8.7 0.00 0.00 0.00 48 1018.1
20240418150523 68 38 3.5 9.6 0.00 0.00 0.00 67 1018.3
20240418150302 68 47 5.2 8.7 0.00 0.00 0.00 47 1018.1
20240418150030 68 33 4.3 9.6 0.00 0.00 0.00 67 1018.3
20240418145802 69 37 3.5 6.1 0.00 0.00 0.00 49 1018.1
20240418145528 68 324 2.6 7.8 0.00 0.00 0.00 47 1018.2
20240418145523 68 335 2.6 7.8 0.00 0.00 0.00 69 1018.3
20240418145024 67 24 3.5 8.7 0.00 0.00 0.00 67 1018.5
20240418144803 68 35 3.5 7.8 0.00 0.00 0.00 46 1018.3
20240418144526 68 38 4.3 8.7 0.00 0.00 0.00 68 1018.5
20240418144302 68 48 3.5 8.7 0.00 0.00 0.00 48 1018.3
20240418144023 68 47 3.5 8.7 0.00 0.00 0.00 48 1018.5
20240418143803 69 28 4.3 8.7 0.00 0.00 0.00 45 1018.3
20240418143523 69 28 3.5 8.7 0.00 0.00 0.00 45 1018.5
20240418143521 69 1 2.6 7.8 0.00 0.00 0.00 47 1018.3
20240418143028 68 9 3.5 7.8 0.00 0.00 0.00 66 1018.6
20240418142802 69 44 3.5 6.1 0.00 0.00 0.00 47 1018.4
20240418142523 69 41 1.7 8.7 0.00 0.00 0.00 47 1018.7
20240418142302 69 330 2.6 7.8 0.00 0.00 0.00 49 1018.4
20240418142023 68 44 4.3 8.7 0.00 0.00 0.00 66 1018.7
20240418141802 68 11 5.2 7.8 0.00 0.00 0.00 47 1018.4
20240418141533 68 23 3.5 8.7 0.00 0.00 0.00 67 1018.7
20240418141302 69 25 4.3 7.8 0.00 0.00 0.00 46 1018.5
20240418141023 68 31 2.6 8.7 0.00 0.00 0.00 66 1018.8
20240418140802 68 63 3.5 8.7 0.00 0.00 0.00 46 1018.5
20240418140523 68 36 3.5 8.7 0.00 0.00 0.00 67 1018.8
20240418140302 68 45 3.5 8.7 0.00 0.00 0.00 45 1018.6
20240418140028 68 61 5.2 8.7 0.00 0.00 0.00 64 1018.8
20240418135802 69 42 5.2 8.7 0.00 0.00 0.00 45 1018.6
20240418135524 69 51 2.6 6.1 0.00 0.00 0.00 65 1018.9
20240418135302 69 82 3.5 5.2 0.00 0.00 0.00 47 1018.6
20240418135022 69 46 2.6 6.1 0.00 0.00 0.00 67 1018.9
20240418134802 70 20 3.5 5.2 0.00 0.00 0.00 44 1018.6
20240418134528 70 36 1.7 6.1 0.00 0.00 0.00 67 1019.0
20240418134302 70 99 2.6 5.2 0.00 0.00 0.00 47 1018.7
20240418134027 70 254 1.7 7.8 0.00 0.00 0.00 66 1019.1
20240418133803 70 49 2.6 7.8 0.00 0.00 0.00 43 1018.7
20240418133524 69 151 2.6 7.8 0.00 0.00 0.00 61 1019.2
20240418133303 69 51 3.5 7.8 0.00 0.00 0.00 41 1018.8
20240418133028 69 71 1.7 8.7 0.00 0.00 0.00 60 1019.2
20240418132802 69 79 3.5 7.8 0.00 0.00 0.00 42 1018.9
20240418132524 68 26 2.6 8.7 0.00 0.00 0.00 61 1019.3
20240418132302 69 89 4.3 7.8 0.00 0.00 0.00 46 1019.0
20240418132023 69 36 1.7 9.6 0.00 0.00 0.00 65 1019.3
20240418131802 69 68 3.5 9.6 0.00 0.00 0.00 41 1018.9
20240418131536 68 40 4.3 9.6 0.00 0.00 0.00 60 1019.2
20240418131524 69 1 4.3 9.6 0.00 0.00 0.00 41 1018.9
20240418131027 68 58 3.5 9.6 0.00 0.00 0.00 41 1019.0
20240418131025 68 147 2.6 9.6 0.00 0.00 0.00 62 1019.3
20240418130523 68 39 2.6 9.6 0.00 0.00 0.00 40 1019.4
20240418130302 68 62 3.5 9.6 0.00 0.00 0.00 44 1019.0
20240418130032 68 34 3.5 7.0 0.00 0.00 0.00 63 1019.4
20240418125802 68 66 4.3 6.1 0.00 0.00 0.00 48 1019.1
20240418125523 68 78 1.7 7.0 0.00 0.00 0.00 68 1019.4
20240418125302 68 8 2.6 5.2 0.00 0.00 0.00 45 1019.1
20240418125025 67 51 1.7 6.1 0.00 0.00 0.00 62 1019.4
20240418124802 68 56 1.7 6.1 0.00 0.00 0.00 45 1019.2
20240418124528 67 47 2.6 7.8 0.00 0.00 0.00 68 1019.5
20240418124303 67 39 3.5 6.1 0.00 0.00 0.00 48 1019.2
20240418124025 67 59 3.5 7.8 0.00 0.00 0.00 64 1019.5
20240418123802 67 100 3.5 9.6 0.00 0.00 0.00 45 1019.2
20240418123524 67 38 2.6 9.6 0.00 0.00 0.00 44 1019.6
20240418123302 67 45 3.5 9.6 0.00 0.00 0.00 48 1019.3
20240418123027 67 63 3.5 9.6 0.00 0.00 0.00 63 1019.6
20240418122802 67 72 2.6 6.1 0.00 0.00 0.00 46 1019.3
20240418122528 66 47 2.6 7.8 0.00 0.00 0.00 65 1019.8
20240418122302 67 137 4.3 6.1 0.00 0.00 0.00 45 1019.5
20240418122023 66 51 1.7 13.9 0.00 0.00 0.00 47 1019.8
20240418121802 67 39 2.6 13.9 0.00 0.00 0.00 51 1019.5
20240418121524 66 54 1.7 13.9 0.00 0.00 0.00 68 1019.7
20240418121302 66 39 4.3 13.9 0.00 0.00 0.00 45 1019.4
20240418121023 66 51 1.7 7.8 0.00 0.00 0.00 66 1019.7
20240418120802 66 55 3.5 7.8 0.00 0.00 0.00 48 1019.5
20240418120524 65 121 1.7 8.7 0.00 0.00 0.00 69 1019.9
20240418120302 65 89 3.5 7.8 0.00 0.00 0.00 51 1019.6
20240418120026 64 51 3.5 8.7 0.00 0.00 0.00 71 1019.9
20240418115803 65 42 5.2 7.8 0.00 0.00 0.00 54 1019.6
20240418115524 64 36 2.6 7.8 0.00 0.00 0.00 76 1020.0
20240418115303 65 312 3.5 7.8 0.00 0.00 0.00 56 1019.7
20240418115023 64 48 3.5 6.1 0.00 0.00 0.00 55 1020.1
20240418114803 65 51 3.5 4.3 0.00 0.00 0.00 58 1019.7
20240418114528 64 93 2.6 4.3 0.00 0.00 0.00 56 1020.1
20240418114302 64 16 2.6 4.3 0.00 0.00 0.00 57 1019.8
20240418114023 64 57 1.7 5.2 0.00 0.00 0.00 76 1020.2
20240418113802 64 58 2.6 4.3 0.00 0.00 0.00 58 1019.8
20240418113523 63 9 1.7 6.1 0.00 0.00 0.00 77 1020.2
20240418113302 63 20 1.7 5.2 0.00 0.00 0.00 56 1019.9
20240418113027 63 54 2.6 6.1 0.00 0.00 0.00 77 1020.4
20240418112801 63 63 3.5 5.2 0.00 0.00 0.00 57 1019.9
20240418112526 63 30 1.7 4.3 0.00 0.00 0.00 77 1020.3
20240418112302 64 102 2.6 4.3 0.00 0.00 0.00 57 1019.9
20240418112023 63 341 1.7 6.1 0.00 0.00 0.00 79 1020.4
20240418111801 63 32 1.7 4.3 0.00 0.00 0.00 59 1020.0
20240418111551 63 309 1.7 6.1 0.00 0.00 0.00 78 1020.4
20240418111302 63 296 3.5 5.2 0.00 0.00 0.00 58 1020.0
20240418111023 63 59 1.7 7.0 0.00 0.00 0.00 58 1020.5
20240418110802 63 63 2.6 5.2 0.00 0.00 0.00 60 1020.1
20240418110523 63 24 2.6 7.0 0.00 0.00 0.00 77 1020.5
20240418110302 63 35 1.7 6.1 0.00 0.00 0.00 59 1020.1
20240418110027 62 21 1.7 7.8 0.00 0.00 0.00 80 1020.6
20240418105803 63 23 2.6 6.1 0.00 0.00 0.00 58 1020.1
20240418105524 62 19 3.5 7.8 0.00 0.00 0.00 78 1020.6
20240418105302 63 39 3.5 6.1 0.00 0.00 0.00 58 1020.2
20240418105025 62 43 1.7 7.8 0.00 0.00 0.00 79 1020.6
20240418104803 63 1 1.7 5.2 0.00 0.00 0.00 60 1020.1
20240418104526 62 88 3.5 7.8 0.00 0.00 0.00 78 1020.7
20240418104524 63 39 3.5 5.2 0.00 0.00 0.00 58 1020.2
20240418104027 63 51 1.7 7.0 0.00 0.00 0.00 57 1020.6
20240418104024 63 117 1.7 6.1 0.00 0.00 0.00 57 1020.2
20240418103523 62 57 2.6 7.8 0.00 0.00 0.00 77 1020.6
20240418103303 62 28 3.5 7.8 0.00 0.00 0.00 58 1020.3
20240418103026 62 108 1.7 7.8 0.00 0.00 0.00 79 1020.7
20240418102802 62 54 2.6 7.8 0.00 0.00 0.00 59 1020.3
20240418102526 61 51 2.6 7.8 0.00 0.00 0.00 78 1020.8
20240418102303 61 72 3.5 7.8 0.00 0.00 0.00 59 1020.3
20240418102026 61 74 2.6 7.8 0.00 0.00 0.00 78 1020.8
20240418101801 61 44 3.5 7.8 0.00 0.00 0.00 60 1020.4
20240418101528 60 71 2.6 7.0 0.00 0.00 0.00 80 1020.8
20240418101303 61 31 3.5 6.1 0.00 0.00 0.00 63 1020.3
20240418101025 60 44 3.5 7.8 0.00 0.00 0.00 61 1020.3
20240418101023 60 34 2.6 7.8 0.00 0.00 0.00 81 1020.8
20240418100528 60 9 2.6 7.8 0.00 0.00 0.00 60 1020.7
20240418100521 60 30 2.6 7.8 0.00 0.00 0.00 61 1020.4
20240418100028 60 41 2.6 7.8 0.00 0.00 0.00 80 1020.9
20240418095803 60 32 2.6 6.1 0.00 0.00 0.00 62 1020.5
20240418095523 59 36 2.6 5.2 0.00 0.00 0.00 83 1020.9
20240418095302 60 23 3.5 5.2 0.00 0.00 0.00 61 1020.6
20240418095025 59 47 2.6 5.2 0.00 0.00 0.00 82 1021.0
20240418094802 59 37 2.6 5.2 0.00 0.00 0.00 64 1020.6
20240418094527 59 80 1.7 5.2 0.00 0.00 0.00 82 1021.0
20240418094302 59 20 2.6 5.2 0.00 0.00 0.00 62 1020.6
20240418094023 59 54 2.6 5.2 0.00 0.00 0.00 81 1020.9
20240418093803 59 34 2.6 5.2 0.00 0.00 0.00 63 1020.7
20240418093522 59 49 2.6 5.2 0.00 0.00 0.00 82 1020.9
20240418093302 59 45 2.6 4.3 0.00 0.00 0.00 63 1020.5
20240418093028 58 57 2.6 5.2 0.00 0.00 0.00 64 1020.9
20240418093023 59 31 2.6 4.3 0.00 0.00 0.00 64 1020.6
20240418092522 58 43 1.7 5.2 0.00 0.00 0.00 85 1020.9
20240418092302 58 37 2.6 4.3 0.00 0.00 0.00 65 1020.6
20240418092026 58 63 1.7 4.3 0.00 0.00 0.00 86 1020.9
20240418091803 58 44 2.6 4.3 0.00 0.00 0.00 67 1020.6
20240418091527 57 39 1.7 4.3 0.00 0.00 0.00 86 1020.9
20240418091302 58 58 3.5 4.3 0.00 0.00 0.00 67 1020.6
20240418091023 57 48 2.6 6.1 0.00 0.00 0.00 87 1021.0
20240418090802 57 32 1.7 5.2 0.00 0.00 0.00 68 1020.7
20240418090524 57 59 2.6 6.1 0.00 0.00 0.00 88 1021.0
20240418090302 57 20 3.5 5.2 0.00 0.00 0.00 68 1020.7
20240418090039 56 51 1.7 5.2 0.00 0.00 0.00 88 1021.0
20240418085802 56 351 2.6 4.3 0.00 0.00 0.00 68 1020.7
20240418085525 56 51 2.6 3.5 0.00 0.00 0.00 70 1020.7
20240418085523 56 51 1.7 5.2 0.00 0.00 0.00 68 1021.0
20240418085023 55 55 1.7 3.5 0.00 0.00 0.00 91 1021.1
20240418084802 55 55 1.7 3.5 0.00 0.00 0.00 75 1020.7
20240418084537 54 41 0.9 4.3 0.00 0.00 0.00 94 1021.1
20240418084302 55 100 1.7 3.5 0.00 0.00 0.00 74 1020.7
20240418084245 54 341 1.7 2.6 0.00 0.00 0.00 78 1020.8
20240418084024 54 9 0.9 4.3 0.00 0.00 0.00 95 1021.0
20240418083526 53 89 0.9 2.6 0.00 0.00 0.00 80 1020.8
20240418083522 53 59 0.9 3.5 0.00 0.00 0.00 98 1021.1
20240418083022 53 325 0.9 3.5 0.00 0.00 0.00 99 1021.1
20240418082802 53 56 0.9 3.5 0.00 0.00 0.00 80 1020.8
20240418082522 52 9 0.9 3.5 0.00 0.00 0.00 100 1021.1
20240418082301 52 344 1.7 3.5 0.00 0.00 0.00 81 1020.9
20240418082025 51 51 0.9 2.6 0.00 0.00 0.00 100 1021.1
20240418081543 51 51 0.9 2.6 0.00 0.00 0.00 100 1021.2
20240418081302 51 223 0.9 2.6 0.00 0.00 0.00 83 1020.8
20240418081022 50 284 0.9 2.6 0.00 0.00 0.00 100 1021.2
20240418080803 51 344 0.9 1.7 0.00 0.00 0.00 84 1020.9
20240418080522 50 291 0.9 2.6 0.00 0.00 0.00 100 1021.2
20240418080302 50 306 0.9 2.6 0.00 0.00 0.00 85 1020.8
20240418080025 49 282 0.9 2.6 0.00 0.00 0.00 100 1021.2
20240418075803 49 341 0.9 2.6 0.00 0.00 0.00 86 1020.8
20240418075527 48 9 0.9 2.6 0.00 0.00 0.00 100 1021.2
20240418075302 48 45 0.9 2.6 0.00 0.00 0.00 87 1020.9
20240418075022 48 334 0.9 2.6 0.00 0.00 0.00 100 1021.2
20240418074802 48 341 0.9 1.7 0.00 0.00 0.00 88 1020.9
20240418074538 47 316 0.9 2.6 0.00 0.00 0.00 100 1021.3
20240418074302 47 351 1.7 1.7 0.00 0.00 0.00 89 1020.9
20240418074248 46 1 0.9 1.7 0.00 0.00 0.00 89 1020.9
20240418074026 46 338 0.9 1.7 0.00 0.00 0.00 100 1021.3
20240418073525 46 0 0.0 1.7 0.00 0.00 0.00 100 1021.3
20240418073302 46 251 0.9 0.9 0.00 0.00 0.00 89 1020.9
20240418073027 45 239 0.0 1.7 0.00 0.00 0.00 100 1021.3
20240418072802 46 223 0.0 1.7 0.00 0.00 0.00 89 1020.9
20240418072527 45 178 0.0 1.7 0.00 0.00 0.00 100 1021.2
20240418072302 46 223 0.9 1.7 0.00 0.00 0.00 89 1020.9
20240418072023 45 239 0.0 1.7 0.00 0.00 0.00 100 1021.3
20240418071802 46 234 0.9 1.7 0.00 0.00 0.00 89 1021.0
20240418071530 45 239 0.0 1.7 0.00 0.00 0.00 100 1021.3
20240418071302 45 234 0.0 0.9 0.00 0.00 0.00 89 1020.9
20240418071023 45 165 0.0 0.9 0.00 0.00 0.00 100 1021.3
20240418071019 46 254 0.0 0.9 0.00 0.00 0.00 89 1020.9
20240418070523 45 0 0.0 0.9 0.00 0.00 0.00 100 1021.3
20240418070302 45 254 0.0 0.9 0.00 0.00 0.00 89 1020.9
20240418070033 45 0 0.0 1.7 0.00 0.00 0.00 100 1021.3
20240418065802 45 45 0.9 1.7 0.00 0.00 0.00 89 1020.9
20240418065523 45 0 0.0 1.7 0.00 0.00 0.00 100 1021.3
20240418065302 45 320 0.9 1.7 0.00 0.00 0.00 89 1020.9
20240418065027 45 319 0.0 1.7 0.00 0.00 0.00 100 1021.3
20240418064803 45 1 0.0 0.9 0.00 0.00 0.00 88 1020.8
20240418064538 45 0 0.0 0.9 0.00 0.00 0.00 100 1021.1
20240418064302 45 296 0.0 0.9 0.00 0.00 0.00 88 1020.8
20240418064026 45 269 0.9 1.7 0.00 0.00 0.00 88 1020.7
20240418064024 45 0 0.0 1.7 0.00 0.00 0.00 100 1021.1
20240418063522 45 221 0.0 1.7 0.00 0.00 0.00 100 1021.0
20240418063304 45 241 0.9 1.7 0.00 0.00 0.00 88 1020.6
20240418063041 45 0 0.0 1.7 0.00 0.00 0.00 100 1021.0
20240418063029 45 269 0.0 1.7 0.00 0.00 0.00 88 1020.7
20240418062523 45 193 0.0 1.7 0.00 0.00 0.00 100 1021.1
20240418062302 46 241 0.9 1.7 0.00 0.00 0.00 88 1020.6
20240418062023 45 244 0.0 1.7 0.00 0.00 0.00 100 1021.0
20240418061802 46 241 0.9 1.7 0.00 0.00 0.00 88 1020.7
20240418061535 45 178 0.0 0.9 0.00 0.00 0.00 100 1021.0
20240418061302 46 223 0.9 0.9 0.00 0.00 0.00 87 1020.7
20240418061024 45 0 0.0 1.7 0.00 0.00 0.00 100 1021.0
20240418060801 46 45 0.0 1.7 0.00 0.00 0.00 87 1020.7
20240418060526 45 0 0.0 1.7 0.00 0.00 0.00 100 1020.9
20240418060521 46 331 0.0 1.7 0.00 0.00 0.00 86 1020.5
20240418060028 45 0 0.0 0.9 0.00 0.00 0.00 100 1020.9
20240418055801 46 45 0.0 0.9 0.00 0.00 0.00 86 1020.6
20240418055525 45 0 0.0 0.9 0.00 0.00 0.00 100 1020.9
20240418055303 46 161 0.0 0.9 0.00 0.00 0.00 86 1020.5
20240418054802 46 269 0.0 0.9 0.00 0.00 0.00 85 1020.5
20240418054522 46 0 0.0 0.9 0.00 0.00 0.00 100 1020.8
20240418054302 46 45 0.0 0.9 0.00 0.00 0.00 85 1020.4
20240418054026 46 0 0.0 0.9 0.00 0.00 0.00 100 1020.8
20240418053803 46 89 0.0 0.9 0.00 0.00 0.00 85 1020.5
20240418053519 46 0 0.0 0.9 0.00 0.00 0.00 100 1020.8
20240418053302 46 241 0.0 0.9 0.00 0.00 0.00 85 1020.5
20240418053023 46 0 0.0 0.9 0.00 0.00 0.00 100 1020.8
20240418052803 47 223 0.0 0.9 0.00 0.00 0.00 84 1020.5
20240418052526 46 0 0.0 0.9 0.00 0.00 0.00 100 1020.8
20240418052302 47 45 0.0 0.9 0.00 0.00 0.00 85 1020.4
20240418052023 46 41 0.0 0.9 0.00 0.00 0.00 100 1020.8
20240418051802 47 296 0.0 0.9 0.00 0.00 0.00 85 1020.5
20240418051746 47 45 0.0 0.9 0.00 0.00 0.00 85 1020.5
20240418051545 46 0 0.0 0.9 0.00 0.00 0.00 100 1020.9
20240418051026 46 0 0.0 0.9 0.00 0.00 0.00 100 1020.8
20240418050802 47 1 0.0 0.9 0.00 0.00 0.00 85 1020.4
20240418050525 46 26 0.0 0.9 0.00 0.00 0.00 100 1020.7
20240418050302 47 45 0.0 0.9 0.00 0.00 0.00 84 1020.3
20240418050038 47 0 0.0 0.9 0.00 0.00 0.00 100 1020.7
20240418045802 47 1 0.0 0.9 0.00 0.00 0.00 84 1020.4
20240418045525 47 0 0.0 0.9 0.00 0.00 0.00 100 1020.7
20240418045506 47 1 0.0 0.9 0.00 0.00 0.00 84 1020.3
20240418045453 47 223 0.0 0.9 0.00 0.00 0.00 84 1020.3
20240418045022 47 0 0.0 0.9 0.00 0.00 0.00 100 1020.7
20240418044527 47 0 0.0 0.9 0.00 0.00 0.00 100 1020.7
20240418044303 47 314 0.0 0.9 0.00 0.00 0.00 83 1020.3
20240418044026 47 0 0.0 0.9 0.00 0.00 0.00 100 1020.7
20240418043803 47 45 0.0 0.9 0.00 0.00 0.00 83 1020.2
20240418043525 47 0 0.0 0.9 0.00 0.00 0.00 100 1020.7
20240418043302 48 117 0.0 0.9 0.00 0.00 0.00 83 1020.3
20240418043036 47 0 0.0 1.7 0.00 0.00 0.00 100 1020.7
20240418042801 48 45 0.0 1.7 0.00 0.00 0.00 83 1020.3
20240418042523 47 0 0.0 1.7 0.00 0.00 0.00 100 1020.6
20240418042302 48 331 0.9 1.7 0.00 0.00 0.00 83 1020.2
20240418042025 47 319 0.9 1.7 0.00 0.00 0.00 100 1020.6
20240418041802 48 45 0.9 1.7 0.00 0.00 0.00 84 1020.2
20240418041537 47 51 0.0 1.7 0.00 0.00 0.00 100 1020.7
20240418041515 48 331 0.9 1.7 0.00 0.00 0.00 84 1020.2
20240418041459 48 45 0.9 1.7 0.00 0.00 0.00 84 1020.3
20240418041024 47 0 0.0 1.7 0.00 0.00 0.00 100 1020.6
20240418040530 47 0 0.0 1.7 0.00 0.00 0.00 100 1020.7
20240418040302 48 331 0.0 0.9 0.00 0.00 0.00 84 1020.2
20240418040043 47 298 0.0 1.7 0.00 0.00 0.00 100 1020.8
20240418035802 48 314 0.0 0.9 0.00 0.00 0.00 83 1020.3
20240418035524 47 0 0.0 1.7 0.00 0.00 0.00 100 1020.7
20240418035303 48 45 0.0 1.7 0.00 0.00 0.00 83 1020.4
20240418035024 48 0 0.0 1.7 0.00 0.00 0.00 100 1020.7
20240418034803 48 1 0.0 1.7 0.00 0.00 0.00 83 1020.3
20240418034528 48 334 0.0 1.7 0.00 0.00 0.00 100 1020.7
20240418034302 48 1 0.0 0.9 0.00 0.00 0.00 83 1020.4
20240418034025 48 0 0.0 0.9 0.00 0.00 0.00 100 1020.7
20240418033802 48 269 0.0 0.9 0.00 0.00 0.00 83 1020.3
20240418033525 48 0 0.0 0.9 0.00 0.00 0.00 100 1020.6
20240418033302 48 269 0.0 0.9 0.00 0.00 0.00 83 1020.3
20240418033030 48 0 0.0 0.9 0.00 0.00 0.00 100 1020.6
20240418032802 48 269 0.0 0.9 0.00 0.00 0.00 83 1020.2
20240418032525 48 221 0.0 1.7 0.00 0.00 0.00 100 1020.6
20240418032302 49 241 0.0 0.9 0.00 0.00 0.00 82 1020.2
20240418032023 48 221 0.0 1.7 0.00 0.00 0.00 100 1020.7
20240418032021 49 223 0.9 1.7 0.00 0.00 0.00 82 1020.3
20240418031535 48 0 0.0 1.7 0.00 0.00 0.00 100 1020.7
20240418031302 49 241 0.9 1.7 0.00 0.00 0.00 81 1020.3
20240418031023 48 221 0.0 1.7 0.00 0.00 0.00 100 1020.6
20240418030802 49 241 0.9 0.9 0.00 0.00 0.00 81 1020.2
20240418030523 49 0 0.0 1.7 0.00 0.00 0.00 100 1020.6
20240418030302 49 45 0.0 1.7 0.00 0.00 0.00 81 1020.3
20240418030031 49 0 0.0 1.7 0.00 0.00 0.00 100 1020.6
20240418025803 49 28 0.9 1.7 0.00 0.00 0.00 81 1020.3
20240418025524 49 51 0.0 1.7 0.00 0.00 0.00 100 1020.6
20240418025302 49 56 0.9 1.7 0.00 0.00 0.00 80 1020.2
20240418025024 49 0 0.0 0.9 0.00 0.00 0.00 99 1020.6
20240418024802 49 45 0.0 0.9 0.00 0.00 0.00 80 1020.2
20240418024526 49 120 0.0 1.7 0.00 0.00 0.00 99 1020.5
20240418024301 49 1 0.0 1.7 0.00 0.00 0.00 80 1020.1
20240418024024 49 0 0.0 1.7 0.00 0.00 0.00 99 1020.5
20240418023802 49 28 0.0 1.7 0.00 0.00 0.00 80 1020.2
20240418023523 49 0 0.0 1.7 0.00 0.00 0.00 99 1020.5
20240418023302 50 28 0.9 0.9 0.00 0.00 0.00 80 1020.2
20240418023027 49 0 0.0 0.9 0.00 0.00 0.00 99 1020.5
20240418022802 50 45 0.0 1.7 0.00 0.00 0.00 79 1020.2
20240418022526 50 89 0.0 2.6 0.00 0.00 0.00 79 1020.2
20240418022524 49 0 0.0 2.6 0.00 0.00 0.00 99 1020.5
20240418022100 49 51 0.0 2.6 0.00 0.00 0.00 99 1020.5
20240418021802 50 45 1.7 2.6 0.00 0.00 0.00 79 1020.2
20240418021527 49 41 0.9 2.6 0.00 0.00 0.00 99 1020.5
20240418021302 50 13 1.7 2.6 0.00 0.00 0.00 79 1020.2
20240418021024 49 59 0.9 2.6 0.00 0.00 0.00 99 1020.5
20240418020803 49 62 0.9 2.6 0.00 0.00 0.00 80 1020.3
20240418020527 49 68 0.9 2.6 0.00 0.00 0.00 99 1020.7
20240418020522 49 28 0.9 2.6 0.00 0.00 0.00 80 1020.4
20240418020026 49 39 0.9 2.6 0.00 0.00 0.00 99 1020.7
20240418015803 49 72 1.7 2.6 0.00 0.00 0.00 80 1020.4
20240418015525 49 49 0.9 2.6 0.00 0.00 0.00 99 1020.7
20240418015302 49 59 0.9 1.7 0.00 0.00 0.00 80 1020.4
20240418015024 49 61 0.9 2.6 0.00 0.00 0.00 100 1020.8
20240418014802 49 56 0.9 1.7 0.00 0.00 0.00 80 1020.6
20240418014742 49 63 0.9 1.7 0.00 0.00 0.00 80 1020.6
20240418014540 49 51 0.9 2.6 0.00 0.00 0.00 100 1021.0
20240418014243 49 223 0.0 0.9 0.00 0.00 0.00 80 1020.7
20240418014024 49 0 0.0 0.9 0.00 0.00 0.00 99 1021.0
20240418013526 49 137 0.0 1.7 0.00 0.00 0.00 99 1021.0
20240418013027 49 0 0.0 1.7 0.00 0.00 0.00 99 1021.2
20240418013023 50 223 0.9 1.7 0.00 0.00 0.00 79 1020.8
20240418012530 50 1 0.0 1.7 0.00 0.00 0.00 79 1020.9
20240418012527 49 221 0.0 1.7 0.00 0.00 0.00 99 1021.1
20240418012027 49 0 0.0 1.7 0.00 0.00 0.00 99 1021.2
20240418011802 50 1 0.0 1.7 0.00 0.00 0.00 79 1020.9
20240418011526 49 0 0.0 1.7 0.00 0.00 0.00 99 1021.3
20240418011302 50 45 0.9 1.7 0.00 0.00 0.00 79 1020.8
20240418011025 49 51 0.9 2.6 0.00 0.00 0.00 99 1021.3
20240418011012 50 72 0.9 1.7 0.00 0.00 0.00 79 1020.9
20240418010950 50 45 0.9 1.7 0.00 0.00 0.00 79 1020.9
20240418010524 49 68 0.9 2.6 0.00 0.00 0.00 99 1021.3
20240418010025 49 44 0.9 2.6 0.00 0.00 0.00 99 1021.3
20240418005800 50 35 1.7 1.7 0.00 0.00 0.00 79 1021.0
20240418005524 49 61 0.0 1.7 0.00 0.00 0.00 98 1021.4
20240418005300 50 1 0.9 0.9 0.00 0.00 0.00 78 1021.0
20240418005025 50 0 0.0 1.7 0.00 0.00 0.00 97 1021.4
20240418004758 50 89 0.0 0.9 0.00 0.00 0.00 78 1021.0
20240418004523 50 0 0.0 1.7 0.00 0.00 0.00 97 1021.5
20240418004253 50 45 0.0 1.7 0.00 0.00 0.00 78 1021.1
20240418004025 50 0 0.0 1.7 0.00 0.00 0.00 98 1021.5
20240418003750 50 269 0.0 1.7 0.00 0.00 0.00 78 1021.1
20240418003524 50 0 0.0 1.7 0.00 0.00 0.00 98 1021.5
20240418003250 50 56 0.9 0.9 0.00 0.00 0.00 78 1021.1
20240418003024 50 0 0.0 0.9 0.00 0.00 0.00 97 1021.5
20240418002746 51 117 0.0 0.9 0.00 0.00 0.00 77 1021.1
20240418002524 50 0 0.0 0.9 0.00 0.00 0.00 96 1021.5
20240418002246 51 269 0.0 0.9 0.00 0.00 0.00 77 1021.2
20240418002024 50 0 0.0 1.7 0.00 0.00 0.00 97 1021.5
20240418002007 51 223 0.0 1.7 0.00 0.00 0.00 77 1021.1
20240418001528 50 0 0.0 2.6 0.00 0.00 0.00 97 1021.5
20240418001236 51 63 0.9 2.6 0.00 0.00 0.00 77 1021.2
20240418001026 50 51 0.0 2.6 0.00 0.00 0.00 97 1021.6
20240418000736 51 35 0.9 2.6 0.00 0.00 0.00 77 1021.3
20240418000525 50 44 0.9 2.6 0.00 0.00 0.00 97 1021.7
20240418000237 51 24 0.9 1.7 0.00 0.00 0.00 77 1021.3
20240418000025 50 68 0.0 2.6 0.00 0.00 0.00 96 1021.7
20240417235734 51 89 0.0 2.6 0.00 0.00 0.00 77 1021.3
20240417235719 51 89 0.9 2.6 0.00 0.00 0.00 76 1021.4
20240417235528 51 41 0.0 2.6 0.00 0.00 0.00 96 1021.7
20240417235025 51 64 0.9 2.6 0.00 0.00 0.00 96 1021.7
20240417234734 51 37 0.9 1.7 0.00 0.00 0.00 77 1021.3
20240417234526 51 57 0.9 2.6 0.00 0.00 0.00 96 1021.7
20240417234232 51 45 0.9 1.7 0.00 0.00 0.00 77 1021.3
20240417234025 51 64 0.9 2.6 0.00 0.00 0.00 96 1021.7
20240417233732 51 54 1.7 2.6 0.00 0.00 0.00 77 1021.3
20240417233524 51 57 0.9 3.5 0.00 0.00 0.00 96 1021.7
20240417233233 51 89 0.9 3.5 0.00 0.00 0.00 77 1021.3
20240417233210 51 49 1.7 3.5 0.00 0.00 0.00 77 1021.4
20240417233030 51 74 0.9 3.5 0.00 0.00 0.00 96 1021.8
20240417232525 51 41 0.9 3.5 0.00 0.00 0.00 96 1021.8
20240417232230 51 37 1.7 3.5 0.00 0.00 0.00 77 1021.4
20240417232025 51 47 0.9 4.3 0.00 0.00 0.00 96 1021.7
20240417231731 51 23 1.7 2.6 0.00 0.00 0.00 77 1021.4
20240417231540 51 44 0.9 4.3 0.00 0.00 0.00 96 1021.7
20240417231451 51 13 0.9 2.6 0.00 0.00 0.00 76 1021.3
20240417231028 51 68 0.9 3.5 0.00 0.00 0.00 96 1021.7
20240417230730 51 45 0.9 2.6 0.00 0.00 0.00 76 1021.3
20240417230525 51 57 0.9 3.5 0.00 0.00 0.00 96 1021.7
20240417230229 51 28 1.7 2.6 0.00 0.00 0.00 76 1021.3
20240417230032 51 26 1.7 3.5 0.00 0.00 0.00 96 1021.8
20240417225722 52 39 1.7 3.5 0.00 0.00 0.00 76 1021.4
20240417225527 51 51 1.7 3.5 0.00 0.00 0.00 96 1021.7
20240417225218 52 23 1.7 3.5 0.00 0.00 0.00 76 1021.4
20240417225027 51 31 1.7 3.5 0.00 0.00 0.00 96 1021.8
20240417224719 52 38 1.7 2.6 0.00 0.00 0.00 76 1021.4
20240417224530 51 26 1.7 3.5 0.00 0.00 0.00 96 1021.7
20240417224212 52 31 1.7 3.5 0.00 0.00 0.00 76 1021.3
20240417224027 51 44 0.9 3.5 0.00 0.00 0.00 96 1021.8
20240417223704 52 35 1.7 3.5 0.00 0.00 0.00 76 1021.4
20240417223524 51 20 0.9 3.5 0.00 0.00 0.00 96 1021.7
20240417223203 52 20 0.9 2.6 0.00 0.00 0.00 76 1021.4
20240417223028 51 26 0.9 2.6 0.00 0.00 0.00 96 1021.8
20240417222704 52 17 1.7 2.6 0.00 0.00 0.00 76 1021.4
20240417222524 51 46 0.9 2.6 0.00 0.00 0.00 95 1021.8
20240417222204 52 16 1.7 2.6 0.00 0.00 0.00 76 1021.4
20240417222026 51 28 0.9 3.5 0.00 0.00 0.00 96 1021.8
20240417221703 52 31 1.7 2.6 0.00 0.00 0.00 76 1021.5
20240417221526 51 34 0.9 3.5 0.00 0.00 0.00 95 1021.9
20240417221204 52 16 1.7 3.5 0.00 0.00 0.00 76 1021.5
20240417221025 52 31 1.7 3.5 0.00 0.00 0.00 96 1021.8
20240417220704 52 31 2.6 3.5 0.00 0.00 0.00 76 1021.4
20240417220524 52 36 1.7 3.5 0.00 0.00 0.00 96 1021.9
20240417220427 52 32 1.7 2.6 0.00 0.00 0.00 76 1021.4
20240417220030 52 26 1.7 2.6 0.00 0.00 0.00 96 1021.8
20240417215703 52 25 1.7 2.6 0.00 0.00 0.00 76 1021.5
20240417215524 52 45 1.7 2.6 0.00 0.00 0.00 96 1021.7
20240417215203 52 17 1.7 2.6 0.00 0.00 0.00 76 1021.4
20240417215025 52 330 0.9 3.5 0.00 0.00 0.00 96 1021.8
20240417214703 52 10 1.7 3.5 0.00 0.00 0.00 76 1021.4
20240417214541 52 9 0.9 3.5 0.00 0.00 0.00 96 1021.7
20240417214204 52 35 1.7 3.5 0.00 0.00 0.00 76 1021.4
20240417214024 52 44 1.7 3.5 0.00 0.00 0.00 96 1021.7
20240417213702 52 45 1.7 2.6 0.00 0.00 0.00 76 1021.4
20240417213529 52 44 0.9 2.6 0.00 0.00 0.00 96 1021.7
20240417213204 52 20 1.7 2.6 0.00 0.00 0.00 76 1021.3
20240417213028 52 41 0.9 2.6 0.00 0.00 0.00 95 1021.7
20240417212703 52 37 1.7 3.5 0.00 0.00 0.00 76 1021.3
20240417212525 52 15 0.9 3.5 0.00 0.00 0.00 95 1021.7
20240417212203 52 45 0.9 3.5 0.00 0.00 0.00 75 1021.3
20240417212027 52 0 0.0 3.5 0.00 0.00 0.00 95 1021.6
20240417211703 52 45 0.0 2.6 0.00 0.00 0.00 75 1021.3
20240417211528 52 0 0.0 4.3 0.00 0.00 0.00 94 1021.6
20240417211204 53 45 0.0 3.5 0.00 0.00 0.00 75 1021.2
20240417211024 52 0 0.9 4.3 0.00 0.00 0.00 95 1021.6
20240417210702 53 48 1.7 3.5 0.00 0.00 0.00 74 1021.2
20240417210525 52 298 0.0 1.7 0.00 0.00 0.00 94 1021.6
20240417210204 53 32 0.9 1.7 0.00 0.00 0.00 74 1021.1
20240417210025 52 0 0.9 4.3 0.00 0.00 0.00 94 1021.5
20240417205702 53 1 0.9 4.3 0.00 0.00 0.00 74 1021.1
20240417205524 52 330 0.9 4.3 0.00 0.00 0.00 94 1021.5
20240417205203 53 31 1.7 4.3 0.00 0.00 0.00 74 1021.0
20240417205023 53 30 0.9 4.3 0.00 0.00 0.00 94 1021.4
20240417204701 53 23 1.7 3.5 0.00 0.00 0.00 74 1021.0
20240417204538 53 120 0.0 3.5 0.00 0.00 0.00 93 1021.3
20240417204424 53 1 0.9 3.5 0.00 0.00 0.00 73 1021.0
20240417204024 53 0 0.9 3.5 0.00 0.00 0.00 93 1021.4
20240417203702 53 45 1.7 3.5 0.00 0.00 0.00 73 1021.0
20240417203524 53 88 1.7 3.5 0.00 0.00 0.00 93 1021.3
20240417203203 53 20 0.9 2.6 0.00 0.00 0.00 74 1021.0
20240417203026 53 51 0.9 2.6 0.00 0.00 0.00 93 1021.2
20240417202924 54 63 1.7 2.6 0.00 0.00 0.00 73 1020.9
20240417202524 53 64 0.9 2.6 0.00 0.00 0.00 93 1021.1
20240417202204 54 32 0.9 2.6 0.00 0.00 0.00 73 1020.8
20240417202028 53 38 0.9 3.5 0.00 0.00 0.00 93 1021.1
20240417201702 54 28 0.9 2.6 0.00 0.00 0.00 73 1020.8
20240417201531 53 30 0.9 3.5 0.00 0.00 0.00 92 1021.0
20240417201203 54 32 0.9 2.6 0.00 0.00 0.00 73 1020.7
20240417201024 54 51 0.9 4.3 0.00 0.00 0.00 92 1020.9
20240417200702 54 63 0.9 3.5 0.00 0.00 0.00 73 1020.7
20240417200525 54 57 0.9 4.3 0.00 0.00 0.00 92 1020.8
20240417200203 54 51 2.6 4.3 0.00 0.00 0.00 72 1020.7
20240417200028 54 63 1.7 5.2 0.00 0.00 0.00 92 1020.9
20240417195702 55 45 1.7 4.3 0.00 0.00 0.00 72 1020.6
20240417195527 54 43 1.7 5.2 0.00 0.00 0.00 91 1020.8
20240417195204 55 37 1.7 3.5 0.00 0.00 0.00 72 1020.5
20240417195024 54 34 1.7 5.2 0.00 0.00 0.00 91 1020.8
20240417194703 55 269 1.7 4.3 0.00 0.00 0.00 71 1020.5
20240417194529 54 34 1.7 6.1 0.00 0.00 0.00 91 1020.7
20240417194203 55 45 3.5 5.2 0.00 0.00 0.00 71 1020.3
20240417194026 54 36 2.6 8.7 0.00 0.00 0.00 90 1020.7
20240417193702 55 20 3.5 8.7 0.00 0.00 0.00 70 1020.3
20240417193526 55 20 2.6 8.7 0.00 0.00 0.00 90 1020.7
20240417193204 55 31 3.5 8.7 0.00 0.00 0.00 70 1020.3
20240417193033 55 44 3.5 7.0 0.00 0.00 0.00 90 1020.6
20240417192702 55 28 3.5 5.2 0.00 0.00 0.00 70 1020.2
20240417192524 55 54 2.6 5.2 0.00 0.00 0.00 90 1020.5
20240417192202 56 45 3.5 7.8 0.00 0.00 0.00 69 1020.1
20240417192125 56 20 3.5 7.8 0.00 0.00 0.00 69 1020.0
20240417192112 56 13 2.6 6.1 0.00 0.00 0.00 69 1020.0
20240417192024 55 47 2.6 7.8 0.00 0.00 0.00 89 1020.4
20240417191528 56 79 3.5 7.8 0.00 0.00 0.00 88 1020.3
20240417191027 56 41 2.6 7.8 0.00 0.00 0.00 88 1020.2
20240417190702 57 39 3.5 7.8 0.00 0.00 0.00 67 1019.9
20240417190523 56 38 2.6 7.8 0.00 0.00 0.00 87 1020.1
20240417190203 57 25 4.3 7.8 0.00 0.00 0.00 66 1019.9
20240417190028 57 32 3.5 7.8 0.00 0.00 0.00 86 1020.2
20240417185702 58 329 4.3 7.8 0.00 0.00 0.00 66 1019.8
20240417185524 57 31 4.3 7.8 0.00 0.00 0.00 85 1020.1
20240417185204 58 37 4.3 6.1 0.00 0.00 0.00 65 1019.8
20240417185025 58 39 3.5 7.8 0.00 0.00 0.00 84 1020.1
20240417184702 59 31 3.5 6.1 0.00 0.00 0.00 64 1019.7
20240417184534 58 28 2.6 7.8 0.00 0.00 0.00 84 1020.0
20240417184430 59 34 3.5 7.8 0.00 0.00 0.00 64 1019.7
20240417184023 59 38 3.5 7.8 0.00 0.00 0.00 83 1019.9
20240417183927 60 39 5.2 7.8 0.00 0.00 0.00 63 1019.6
20240417183524 59 23 3.5 7.8 0.00 0.00 0.00 82 1019.9
20240417183203 60 23 4.3 7.8 0.00 0.00 0.00 62 1019.5
20240417183028 60 29 2.6 8.7 0.00 0.00 0.00 82 1019.8
20240417182702 60 21 3.5 7.8 0.00 0.00 0.00 61 1019.5
20240417182524 60 36 3.5 8.7 0.00 0.00 0.00 80 1019.6
20240417182203 61 10 3.5 10.4 0.00 0.00 0.00 60 1019.5
20240417182029 60 36 2.6 10.4 0.00 0.00 0.00 79 1019.7
20240417181702 61 6 3.5 10.4 0.00 0.00 0.00 59 1019.5
20240417181529 61 41 3.5 10.4 0.00 0.00 0.00 79 1019.7
20240417181426 61 30 4.3 7.8 0.00 0.00 0.00 58 1019.4
20240417181024 61 30 3.5 8.7 0.00 0.00 0.00 78 1019.6
20240417180702 62 20 4.3 8.7 0.00 0.00 0.00 58 1019.4
20240417180524 61 36 3.5 8.7 0.00 0.00 0.00 78 1019.6
20240417180203 62 25 4.3 8.7 0.00 0.00 0.00 57 1019.3
20240417180035 62 38 3.5 8.7 0.00 0.00 0.00 77 1019.5
20240417175702 62 28 3.5 6.1 0.00 0.00 0.00 57 1019.3
20240417175523 62 16 2.6 7.0 0.00 0.00 0.00 76 1019.5
20240417175202 63 4 4.3 6.1 0.00 0.00 0.00 56 1019.2
20240417175028 62 38 2.6 6.1 0.00 0.00 0.00 76 1019.4
20240417174702 63 18 3.5 7.8 0.00 0.00 0.00 57 1019.2
20240417174535 62 40 3.5 7.8 0.00 0.00 0.00 76 1019.5
20240417174419 63 37 3.5 7.8 0.00 0.00 0.00 57 1019.3
20240417174027 63 27 3.5 7.8 0.00 0.00 0.00 76 1019.5
20240417173921 63 28 3.5 7.8 0.00 0.00 0.00 56 1019.3
20240417173525 63 51 3.5 7.8 0.00 0.00 0.00 75 1019.5
20240417173203 64 25 3.5 7.8 0.00 0.00 0.00 56 1019.2
20240417173033 63 45 4.3 7.8 0.00 0.00 0.00 76 1019.5
20240417172927 64 32 4.3 7.8 0.00 0.00 0.00 55 1019.1
20240417172524 64 46 3.5 7.8 0.00 0.00 0.00 74 1019.3
20240417172203 64 28 3.5 7.8 0.00 0.00 0.00 56 1019.2
20240417172024 64 24 2.6 7.8 0.00 0.00 0.00 75 1019.4
20240417171702 64 350 4.3 8.7 0.00 0.00 0.00 55 1019.1
20240417171528 64 34 3.5 8.7 0.00 0.00 0.00 75 1019.3
20240417171203 65 34 4.3 8.7 0.00 0.00 0.00 56 1019.1
20240417171024 64 279 3.5 8.7 0.00 0.00 0.00 77 1019.2
20240417170702 65 38 2.6 7.8 0.00 0.00 0.00 59 1019.0
20240417170524 64 328 1.7 7.8 0.00 0.00 0.00 78 1019.2
20240417170205 65 54 4.3 8.7 0.00 0.00 0.00 58 1019.0
20240417170030 64 24 2.6 9.6 0.00 0.00 0.00 58 1019.2
20240417165702 65 45 2.6 9.6 0.00 0.00 0.00 59 1019.0
20240417165528 64 13 4.3 11.3 0.00 0.00 0.00 78 1019.3
20240417165204 65 324 4.3 11.3 0.00 0.00 0.00 58 1019.0